COSMOS 2535 DEB, 44633

Orbit data source: Space-Track

COSMOS 2535 DEB, 44633 is space debris in SSO originally from a launch on Wed, 10 Jul 2019 UTC launched from the Plesetsk Missile And Space Complex (PKMTR). Debris objects in space refer to the collection of defunct objects orbiting the Earth. Examples of debris include non-operational satellites, rocket bodies, and fragments generated from explosions, collisions, or faulty payload assembly.

Loading next visibility...
Identifier
44633, 2019-039K
Orbit
SSO
Country
Flag of CISCIS
Related business
Manufacturer
Unknown
Mission
Spacecraft
Bus & Motor
Unknown
Mass
Unknown
Launch date (UTC)
2019-07-10 (6 years ago)
Launch vehicle
Unknown
Launch site
Plesetsk Missile And Space Complex (PKMTR)
Object type
Payload
Rocket body
Debris
Shape & HBR
Unknown shape, 0.1 m
Radar Cross Section
Small (<0.1 m²)

Expand to show TLE details & history
Last TLE update: 20 hours ago

TLE from 20 hours ago
0 COSMOS 2535 DEB
1 44633U 19039K   25286.72264845  .00002480  00000-0  31718-3 0  9990
2 44633  97.7113 278.9399 0051308 130.5059 230.0641 14.81321610324188
Epoch: 2025-10-13T17:20Z
TLE epoch observation values (Epoch: 2025-10-13T17:20:36.826Z)
Latitude
-0.00005°
Longitude
-3.73488°
Altitude
651.364 km
Speed
7.519 km/s
True Right ascension
18h 35m 45s
True Declination
0° 00' 00"
Sunlit
Object was in daylight at epoch
Visualization orbit readout
Latitude
Unknown
Longitude
Unknown
Altitude
Unknown
Speed
Unknown
Apparent Right ascension
Unknown
Apparent Declination
Unknown
Sunlit
N/A
Visualization observer readout
Local Sidereal Time
07:42:03
Azimuth
Unknown
Elevation
Unknown
Doppler factor
Unknown
Orbital elements
Apogee altitude
658.103 km
Perigee altitude
586.269 km
Semi-major axis
7,000.323 km
Eccentricity
0.00513
Inclination
97.7113°
RAAN
278.9399°
Arg. of periapsis
130.5059°
True anomaly
229.61514°
Mean anomaly
230.0641°
Eccentric anomaly
229.83943°
Mean motion
3.70566 °/min
Orbital period
97.15 mins
BSTAR
0.00031718
Loading maneuver chart data...
Computing Atmospheric mass density...
Loading historical data...
Loading historical data...
Loading historical data...
Loading historical data...
Loading historical data...
Loading historical data...
Loading historical data...

Documentation

Showing up to 5 results
|